Regional Weather Roundup
Issued by NWS Cleveland, OH

Home | Current Version | Previous Version | Text Only | Print | Product List | Glossary Off
Versions: 1 2 3 4 5 6 7 8 9 10 11 12 13 14 15 16 17 18 19 20 21 22 23 24 25 26 27 28 29 30 31 32 33 34 35 36 37 38 39 40 41 42 43 44 45 46 47 48 49 50

107
ASUS41 KCLE 290212
RWRCLE
OHIO REGIONAL WEATHER ROUNDUP
NATIONAL WEATHER SERVICE WILMINGTON, OH
1000 PM EDT THU APR 28 2016

NOTE: "FAIR" INDICATES FEW OR NO CLOUDS BELOW 12,000 FEET WITH NO
SIGNIFICANT WEATHER AND/OR OBSTRUCTIONS TO VISIBILITY.

OHZ001>008-015>018-024>027-034-035-043-044-290300-
   NORTHWEST OHIO

CITY           SKY/WX    TMP DP  RH WIND       PRES   REMARKS
DEFIANCE       CLOUDY    48  37  65 NE8       30.00R
FINDLAY        LGT RAIN  47  40  76 NW6       29.98R
TOLEDO EXPRESS CLOUDY    47  35  63 NE12      29.99R
TOLEDO EXEC    CLOUDY    47  37  68 E9        29.99R
LIMA           CLOUDY    47  45  93 N6        29.96R
$$

OHZ009>014-019>023-028>033-038-089-290300-
   NORTHEAST OHIO

CITY           SKY/WX    TMP DP  RH WIND       PRES   REMARKS
CLE-HOPKINS    CLOUDY    48  45  89 NE10      29.98S
CLE-LAKEFRONT  CLOUDY    48  44  86 NE12      29.96R
CUY CO. ARPT   CLOUDY    43  41  93 NE12      29.97S
LORAIN-ELYRIA  CLOUDY    46  41  82 N6        29.98R
ASHTABULA      CLOUDY    44  43  96 N3        29.99R
AKRON-CANTON   CLOUDY    47  43  86 NE7       29.95S
WOOSTER        CLOUDY    48  45  89 E6        29.96R
MANSFIELD      CLOUDY    49  47  93 NE6       29.95R
YOUNGSTOWN     CLOUDY    45  42  89 E6        29.97R
$$

OHZ042-051>053-060>062-070>072-077>081-290300-
  SOUTHWEST OHIO

CITY           SKY/WX    TMP DP  RH WIND       PRES   REMARKS
CINC-COVINGTON FAIR      63  56  78 N8        29.93R
CINC-LUNKEN    FAIR      65  59  81 N9        29.93R
HAMILTON       FAIR      62  58  86 N5        29.94R
DAYTON         CLOUDY    52  50  93 N9        29.96R FOG
WRIGHT-PAT AFB NOT AVBL
DAYTON GENERAL FAIR      58  53  84 N9        29.93R
WILMINGTON     FAIR      58  56  93 N7        29.93R FOG
$$

OHZ036-037-039>041-045>050-054>059-063>069-073>076-082>088-290300-
  CENTRAL AND SOUTHEAST OHIO

CITY           SKY/WX    TMP DP  RH WIND       PRES   REMARKS
COLUMBUS       MOCLDY    56  52  86 CALM      29.91R
OSU AIRPORT    MOCLDY    56  52  86 NW5       29.93R
BOLTON FIELD   CLOUDY    58  54  86 N6        29.94R
RICKENBACK AFB CLOUDY    57  55  93 E7        29.91R FOG
NEWARK         LGT RAIN  56  51  84 NE6       29.91R
MARION         CLOUDY    50  48  93 E8        29.95R FOG
LANCASTER      LGT RAIN  57  54  89 N3        29.92R FOG
ZANESVILLE     CLOUDY    57  51  80 NE7       29.92R
NEW PHILLY     CLOUDY    49  45  86 NE3       29.95R
$$




USA.gov is the U.S. government's official web portal to all federal, state and local government web resources and services.